contact:dominique.lefevre@mio.osupytheas.fr, maurice.libes@osupytheas.fr, didier.mallarino@osupytheas.fr
Project:EMSO http://www.emso-fr.org/EMSO-France
Depth: 2436.0 m
Title:EMSO Ligure Ouest : Data MII capteur CSTAR
DateTime,Latitude,Longitude,Instrument_Serial,Reference_Counts,Signal_Counts,Corrected_Signal_raw_counts,Calculated_Beam_c_inverse_meters,Internal_thermistor_counts
DateTime,Latitude,Longitude,Instrument_Serial,Reference_Counts,Signal_Counts,Corrected_Signal_raw_counts,Calculated_Beam_c_inverse_meters,Internal_thermistor_counts
2021-04-04T00:00:39,42.805,6.029,CST-1368DR,5608,7841,15029,0.153,551
2021-04-04T00:03:40,42.805,6.029,CST-1368DR,5608,7837,15022,0.155,551
2021-04-04T00:06:42,42.805,6.029,CST-1368DR,5608,7840,15028,0.154,551
2021-04-04T00:09:44,42.805,6.029,CST-1368DR,5608,7841,15030,0.153,550
2021-04-04T00:12:45,42.805,6.029,CST-1368DR,5608,7841,15030,0.153,551
2021-04-04T00:15:47,42.805,6.029,CST-1368DR,5608,7840,15028,0.154,551
2021-04-04T00:18:48,42.805,6.029,CST-1368DR,5608,7840,15028,0.154,551
2021-04-04T00:21:50,42.805,6.029,CST-1368DR,5608,7839,15026,0.154,551
2021-04-04T00:24:51,42.805,6.029,CST-1368DR,5608,7838,15024,0.155,551
2021-04-04T00:27:53,42.805,6.029,CST-1368DR,5608,7839,15025,0.154,551
2021-04-04T00:30:55,42.805,6.029,CST-1368DR,5608,7840,15027,0.154,551
2021-04-04T00:33:56,42.805,6.029,CST-1368DR,5608,7840,15027,0.154,551
2021-04-04T00:36:58,42.805,6.029,CST-1368DR,5608,7839,15025,0.154,551
2021-04-04T00:39:59,42.805,6.029,CST-1368DR,5608,7840,15028,0.154,551
2021-04-04T00:43:01,42.805,6.029,CST-1368DR,5608,7837,15021,0.155,551
2021-04-04T00:46:03,42.805,6.029,CST-1368DR,5608,7839,15026,0.154,551
2021-04-04T00:49:04,42.805,6.029,CST-1368DR,5608,7839,15026,0.154,551
2021-04-04T00:52:06,42.805,6.029,CST-1368DR,5608,7838,15023,0.155,551
2021-04-04T00:55:07,42.805,6.029,CST-1368DR,5607,7839,15027,0.154,551
2021-04-04T00:58:09,42.805,6.029,CST-1368DR,5608,7836,15021,0.155,551
2021-04-04T01:01:10,42.805,6.029,CST-1368DR,5607,7839,15028,0.154,551
2021-04-04T01:04:12,42.805,6.029,CST-1368DR,5607,7839,15027,0.154,551
2021-04-04T01:07:14,42.805,6.029,CST-1368DR,5607,7839,15028,0.154,551
2021-04-04T01:10:15,42.805,6.029,CST-1368DR,5607,7839,15028,0.154,551
2021-04-04T01:13:17,42.805,6.029,CST-1368DR,5607,7838,15026,0.154,551
2021-04-04T01:16:18,42.805,6.029,CST-1368DR,5607,7837,15024,0.155,551
2021-04-04T01:19:20,42.805,6.029,CST-1368DR,5607,7839,15027,0.154,551
2021-04-04T01:22:21,42.805,6.029,CST-1368DR,5607,7839,15027,0.154,551
2021-04-04T01:25:23,42.805,6.029,CST-1368DR,5607,7838,15027,0.154,551
2021-04-04T01:28:25,42.805,6.029,CST-1368DR,5607,7839,15027,0.154,551
2021-04-04T01:31:26,42.805,6.029,CST-1368DR,5607,7839,15028,0.154,551
2021-04-04T01:34:28,42.805,6.029,CST-1368DR,5607,7838,15026,0.154,551
2021-04-04T01:37:29,42.805,6.029,CST-1368DR,5607,7839,15028,0.154,551
2021-04-04T01:40:31,42.805,6.029,CST-1368DR,5607,7838,15026,0.154,551
2021-04-04T01:43:33,42.805,6.029,CST-1368DR,5607,7837,15024,0.155,551
2021-04-04T01:46:34,42.805,6.029,CST-1368DR,5606,7836,15024,0.155,551
2021-04-04T01:49:36,42.805,6.029,CST-1368DR,5606,7831,15015,0.157,551
2021-04-04T01:52:37,42.805,6.029,CST-1368DR,5606,7837,15026,0.154,551
2021-04-04T01:55:39,42.805,6.029,CST-1368DR,5606,7837,15026,0.154,551
2021-04-04T01:58:40,42.805,6.029,CST-1368DR,5606,7833,15020,0.156,551
2021-04-04T02:01:42,42.805,6.029,CST-1368DR,5606,7837,15027,0.154,551
2021-04-04T02:04:44,42.805,6.029,CST-1368DR,5606,7837,15028,0.154,551
2021-04-04T02:07:45,42.805,6.029,CST-1368DR,5606,7837,15027,0.154,551
2021-04-04T02:10:47,42.805,6.029,CST-1368DR,5606,7831,15016,0.157,551
2021-04-04T02:13:48,42.805,6.029,CST-1368DR,5606,7837,15027,0.154,551
2021-04-04T02:16:50,42.805,6.029,CST-1368DR,5606,7836,15025,0.154,551
2021-04-04T02:19:51,42.805,6.029,CST-1368DR,5606,7836,15026,0.154,551
2021-04-04T02:22:53,42.805,6.029,CST-1368DR,5606,7836,15025,0.154,551
2021-04-04T02:25:55,42.805,6.029,CST-1368DR,5605,7835,15026,0.154,551
2021-04-04T02:28:56,42.805,6.029,CST-1368DR,5605,7837,15030,0.153,551
2021-04-04T02:31:58,42.805,6.029,CST-1368DR,5605,7832,15020,0.156,551
2021-04-04T02:34:59,42.805,6.029,CST-1368DR,5605,7837,15029,0.153,551
2021-04-04T02:38:01,42.805,6.029,CST-1368DR,5605,7836,15028,0.154,551
2021-04-04T02:41:03,42.805,6.029,CST-1368DR,5605,7835,15026,0.154,551
2021-04-04T02:44:04,42.805,6.029,CST-1368DR,5605,7837,15029,0.153,551
2021-04-04T02:47:06,42.805,6.029,CST-1368DR,5605,7834,15024,0.155,551
2021-04-04T02:50:07,42.805,6.029,CST-1368DR,5605,7836,15028,0.154,551
2021-04-04T02:53:09,42.805,6.029,CST-1368DR,5605,7836,15027,0.154,551
2021-04-04T02:56:10,42.805,6.029,CST-1368DR,5605,7835,15026,0.154,551
2021-04-04T02:59:12,42.805,6.029,CST-1368DR,5605,7836,15028,0.154,551
2021-04-04T03:02:14,42.805,6.029,CST-1368DR,5604,7835,15028,0.154,551
2021-04-04T03:05:15,42.805,6.029,CST-1368DR,5604,7821,15001,0.161,551
2021-04-04T03:08:17,42.805,6.029,CST-1368DR,5604,7835,15029,0.153,551
2021-04-04T03:11:18,42.805,6.029,CST-1368DR,5604,7835,15029,0.153,551
2021-04-04T03:14:20,42.805,6.029,CST-1368DR,5604,7835,15028,0.154,551
2021-04-04T03:17:22,42.805,6.029,CST-1368DR,5604,7835,15029,0.153,551
2021-04-04T03:20:23,42.805,6.029,CST-1368DR,5604,7835,15029,0.153,551
2021-04-04T03:23:25,42.805,6.029,CST-1368DR,5604,7824,15007,0.159,551
2021-04-04T03:26:26,42.805,6.029,CST-1368DR,5604,7834,15026,0.154,550
2021-04-04T03:29:28,42.805,6.029,CST-1368DR,5604,7835,15028,0.154,551
2021-04-04T03:32:29,42.805,6.029,CST-1368DR,5604,7825,15009,0.159,551
2021-04-04T03:35:31,42.805,6.029,CST-1368DR,5604,7831,15020,0.156,551
2021-04-04T03:38:33,42.805,6.029,CST-1368DR,5604,7834,15025,0.154,551
2021-04-04T03:41:34,42.805,6.029,CST-1368DR,5604,7834,15026,0.154,551
2021-04-04T03:44:36,42.805,6.029,CST-1368DR,5604,7834,15026,0.154,551
2021-04-04T03:47:37,42.805,6.029,CST-1368DR,5604,7834,15025,0.154,551
2021-04-04T03:50:39,42.805,6.029,CST-1368DR,5604,7830,15018,0.156,551
2021-04-04T03:53:40,42.805,6.029,CST-1368DR,5603,7834,15029,0.153,551
2021-04-04T03:56:42,42.805,6.029,CST-1368DR,5603,7834,15029,0.153,551
2021-04-04T03:59:44,42.805,6.029,CST-1368DR,5603,7834,15028,0.154,551
2021-04-04T04:02:45,42.805,6.029,CST-1368DR,5603,7834,15029,0.153,551
2021-04-04T04:05:47,42.805,6.029,CST-1368DR,5603,7833,15028,0.154,551
2021-04-04T04:08:48,42.805,6.029,CST-1368DR,5603,7834,15029,0.153,551
2021-04-04T04:11:50,42.805,6.029,CST-1368DR,5603,7828,15017,0.156,551
2021-04-04T04:14:52,42.805,6.029,CST-1368DR,5603,7827,15016,0.157,551
2021-04-04T04:17:53,42.805,6.029,CST-1368DR,5603,7834,15028,0.154,551
2021-04-04T04:20:55,42.805,6.029,CST-1368DR,5603,7833,15028,0.154,551
2021-04-04T04:23:56,42.805,6.029,CST-1368DR,5603,7830,15021,0.155,551
2021-04-04T04:26:58,42.805,6.029,CST-1368DR,5603,7833,15026,0.154,551
2021-04-04T04:29:59,42.805,6.029,CST-1368DR,5603,7833,15027,0.154,551
2021-04-04T04:33:01,42.805,6.029,CST-1368DR,5603,7833,15028,0.154,551
2021-04-04T04:36:03,42.805,6.029,CST-1368DR,5603,7833,15028,0.154,551
2021-04-04T04:39:04,42.805,6.029,CST-1368DR,5603,7832,15025,0.154,551
2021-04-04T04:42:06,42.805,6.029,CST-1368DR,5602,7830,15023,0.155,551
2021-04-04T04:45:07,42.805,6.029,CST-1368DR,5602,7832,15027,0.154,551
2021-04-04T04:48:09,42.805,6.029,CST-1368DR,5602,7832,15027,0.154,551
2021-04-04T04:51:11,42.805,6.029,CST-1368DR,5602,7832,15028,0.154,551
2021-04-04T04:54:12,42.805,6.029,CST-1368DR,5602,7832,15028,0.154,550
2021-04-04T04:57:14,42.805,6.029,CST-1368DR,5602,7831,15026,0.154,551
2021-04-04T05:00:15,42.805,6.029,CST-1368DR,5602,7832,15028,0.154,551
2021-04-04T05:03:17,42.805,6.029,CST-1368DR,5602,7832,15027,0.154,551
2021-04-04T05:06:18,42.805,6.029,CST-1368DR,5602,7833,15030,0.153,551
2021-04-04T05:09:20,42.805,6.029,CST-1368DR,5602,7832,15028,0.154,551
2021-04-04T05:12:22,42.805,6.029,CST-1368DR,5602,7831,15026,0.154,551
2021-04-04T05:15:23,42.805,6.029,CST-1368DR,5602,7831,15026,0.154,551
2021-04-04T05:18:25,42.805,6.029,CST-1368DR,5602,7832,15027,0.154,551
2021-04-04T05:21:26,42.805,6.029,CST-1368DR,5602,7832,15028,0.154,550
2021-04-04T05:24:28,42.805,6.029,CST-1368DR,5602,7832,15028,0.154,550
2021-04-04T05:27:29,42.805,6.029,CST-1368DR,5602,7823,15010,0.158,551
2021-04-04T05:30:31,42.805,6.029,CST-1368DR,5602,7822,15008,0.159,551
2021-04-04T05:33:33,42.805,6.029,CST-1368DR,5602,7830,15024,0.155,551
2021-04-04T05:36:34,42.805,6.029,CST-1368DR,5602,7831,15026,0.154,551
2021-04-04T05:39:36,42.805,6.029,CST-1368DR,5602,7830,15023,0.155,551
2021-04-04T05:42:37,42.805,6.029,CST-1368DR,5601,7829,15024,0.155,551
2021-04-04T05:45:39,42.805,6.029,CST-1368DR,5601,7831,15028,0.154,551
2021-04-04T05:48:41,42.805,6.029,CST-1368DR,5601,7832,15029,0.153,551
2021-04-04T05:51:42,42.805,6.029,CST-1368DR,5601,7831,15028,0.154,551
2021-04-04T05:54:44,42.805,6.029,CST-1368DR,5601,7830,15025,0.154,551
2021-04-04T05:57:45,42.805,6.029,CST-1368DR,5601,7831,15029,0.153,551
2021-04-04T06:00:47,42.805,6.029,CST-1368DR,5601,7831,15028,0.154,551
2021-04-04T06:03:48,42.805,6.029,CST-1368DR,5601,7831,15027,0.154,551
2021-04-04T06:06:50,42.805,6.029,CST-1368DR,5601,7830,15027,0.154,551
2021-04-04T06:09:52,42.805,6.029,CST-1368DR,5601,7831,15027,0.154,551
2021-04-04T06:12:53,42.805,6.029,CST-1368DR,5601,7830,15026,0.154,551
2021-04-04T06:15:55,42.805,6.029,CST-1368DR,5601,7830,15026,0.154,551
2021-04-04T06:18:56,42.805,6.029,CST-1368DR,5601,7830,15027,0.154,551
2021-04-04T06:21:58,42.805,6.029,CST-1368DR,5601,7825,15017,0.156,551
2021-04-04T06:25:00,42.805,6.029,CST-1368DR,5601,7830,15026,0.154,551
2021-04-04T06:28:01,42.805,6.029,CST-1368DR,5601,7830,15026,0.154,551
2021-04-04T06:31:03,42.805,6.029,CST-1368DR,5601,7831,15028,0.154,551
2021-04-04T06:34:04,42.805,6.029,CST-1368DR,5601,7830,15026,0.154,551
2021-04-04T06:37:06,42.805,6.029,CST-1368DR,5601,7830,15027,0.154,551
2021-04-04T06:40:07,42.805,6.029,CST-1368DR,5601,7828,15022,0.155,551
2021-04-04T06:43:09,42.805,6.029,CST-1368DR,5601,7830,15026,0.154,551
2021-04-04T06:46:11,42.805,6.029,CST-1368DR,5600,7829,15027,0.154,551
2021-04-04T06:49:12,42.805,6.029,CST-1368DR,5600,7830,15029,0.153,551
2021-04-04T06:52:14,42.805,6.029,CST-1368DR,5600,7829,15026,0.154,550
2021-04-04T06:55:15,42.805,6.029,CST-1368DR,5600,7830,15028,0.154,551
2021-04-04T06:58:17,42.805,6.029,CST-1368DR,5600,7830,15029,0.153,551
2021-04-04T07:01:18,42.805,6.029,CST-1368DR,5600,7830,15029,0.153,551
2021-04-04T07:04:20,42.805,6.029,CST-1368DR,5600,7825,15019,0.156,551
2021-04-04T07:07:22,42.805,6.029,CST-1368DR,5600,7829,15027,0.154,551
2021-04-04T07:10:23,42.805,6.029,CST-1368DR,5600,7830,15028,0.154,551
2021-04-04T07:13:25,42.805,6.029,CST-1368DR,5600,7828,15024,0.155,551
2021-04-04T07:16:26,42.805,6.029,CST-1368DR,5600,7830,15028,0.154,550
2021-04-04T07:19:28,42.805,6.029,CST-1368DR,5600,7829,15026,0.154,551
2021-04-04T07:22:30,42.805,6.029,CST-1368DR,5600,7828,15025,0.154,551
2021-04-04T07:25:31,42.805,6.029,CST-1368DR,5600,7829,15027,0.154,551
2021-04-04T07:28:33,42.805,6.029,CST-1368DR,5600,7829,15026,0.154,551
2021-04-04T07:31:34,42.805,6.029,CST-1368DR,5600,7829,15026,0.154,551
2021-04-04T07:34:36,42.805,6.029,CST-1368DR,5599,7828,15028,0.154,551
2021-04-04T07:37:37,42.805,6.029,CST-1368DR,5600,7828,15025,0.154,551
2021-04-04T07:40:39,42.805,6.029,CST-1368DR,5599,7828,15028,0.154,551
2021-04-04T07:43:41,42.805,6.029,CST-1368DR,5599,7827,15026,0.154,551
2021-04-04T07:46:42,42.805,6.029,CST-1368DR,5599,7829,15029,0.153,551
2021-04-04T07:49:44,42.805,6.029,CST-1368DR,5599,7829,15030,0.153,551
2021-04-04T07:52:45,42.805,6.029,CST-1368DR,5599,7823,15018,0.156,551
2021-04-04T07:55:47,42.805,6.029,CST-1368DR,5599,7828,15027,0.154,551
2021-04-04T07:58:49,42.805,6.029,CST-1368DR,5599,7828,15028,0.154,550
2021-04-04T08:01:50,42.805,6.029,CST-1368DR,5599,7828,15028,0.154,551
2021-04-04T08:04:52,42.805,6.029,CST-1368DR,5599,7825,15022,0.155,551
2021-04-04T08:07:53,42.805,6.029,CST-1368DR,5599,7825,15022,0.155,551
2021-04-04T08:10:55,42.805,6.029,CST-1368DR,5599,7827,15025,0.154,551
2021-04-04T08:13:56,42.805,6.029,CST-1368DR,5599,7828,15027,0.154,551
2021-04-04T08:16:58,42.805,6.029,CST-1368DR,5599,7828,15028,0.154,551
2021-04-04T08:20:00,42.805,6.029,CST-1368DR,5599,7827,15026,0.154,551
2021-04-04T08:23:01,42.805,6.029,CST-1368DR,5599,7827,15025,0.154,550
2021-04-04T08:26:03,42.805,6.029,CST-1368DR,5599,7827,15025,0.154,551
2021-04-04T08:29:04,42.805,6.029,CST-1368DR,5599,7827,15026,0.154,551
2021-04-04T08:32:06,42.805,6.029,CST-1368DR,5599,7824,15019,0.156,551
2021-04-04T08:35:08,42.805,6.029,CST-1368DR,5598,7827,15028,0.154,551
2021-04-04T08:38:09,42.805,6.029,CST-1368DR,5598,7828,15029,0.153,551
2021-04-04T08:41:11,42.805,6.029,CST-1368DR,5598,7828,15030,0.153,551
2021-04-04T08:44:12,42.805,6.029,CST-1368DR,5598,7825,15025,0.154,551
2021-04-04T08:47:14,42.805,6.029,CST-1368DR,5598,7827,15029,0.153,551
2021-04-04T08:50:15,42.805,6.029,CST-1368DR,5598,7828,15030,0.153,551
2021-04-04T08:53:17,42.805,6.029,CST-1368DR,5598,7827,15028,0.154,551
2021-04-04T08:56:19,42.805,6.029,CST-1368DR,5598,7827,15028,0.154,551
2021-04-04T08:59:20,42.805,6.029,CST-1368DR,5598,7827,15028,0.154,551
2021-04-04T09:02:22,42.805,6.029,CST-1368DR,5598,7828,15030,0.153,551
2021-04-04T09:05:23,42.805,6.029,CST-1368DR,5598,7828,15029,0.153,551
2021-04-04T09:08:25,42.805,6.029,CST-1368DR,5598,7827,15029,0.153,551
2021-04-04T09:11:26,42.805,6.029,CST-1368DR,5598,7826,15027,0.154,551
2021-04-04T09:14:28,42.805,6.029,CST-1368DR,5598,7825,15024,0.155,550
2021-04-04T09:17:30,42.805,6.029,CST-1368DR,5598,7826,15027,0.154,551
2021-04-04T09:20:31,42.805,6.029,CST-1368DR,5598,7826,15027,0.154,551
2021-04-04T09:23:33,42.805,6.029,CST-1368DR,5598,7824,15022,0.155,551
2021-04-04T09:26:34,42.805,6.029,CST-1368DR,5597,7825,15027,0.154,551
2021-04-04T09:29:36,42.805,6.029,CST-1368DR,5597,7826,15028,0.154,551
2021-04-04T09:32:38,42.805,6.029,CST-1368DR,5597,7825,15027,0.154,551
2021-04-04T09:35:39,42.805,6.029,CST-1368DR,5597,7826,15028,0.154,551
2021-04-04T09:38:41,42.805,6.029,CST-1368DR,5597,7824,15025,0.154,551
2021-04-04T09:41:42,42.805,6.029,CST-1368DR,5597,7824,15025,0.154,551
2021-04-04T09:44:44,42.805,6.029,CST-1368DR,5597,7826,15028,0.154,551
2021-04-04T09:47:45,42.805,6.029,CST-1368DR,5597,7824,15025,0.154,551
2021-04-04T09:50:47,42.805,6.029,CST-1368DR,5597,7825,15026,0.154,551
2021-04-04T09:53:49,42.805,6.029,CST-1368DR,5597,7823,15023,0.155,551
2021-04-04T09:56:50,42.805,6.029,CST-1368DR,5597,7824,15024,0.155,551
2021-04-04T09:59:52,42.805,6.029,CST-1368DR,5597,7824,15025,0.154,551
2021-04-04T10:02:53,42.805,6.029,CST-1368DR,5597,7825,15027,0.154,551
2021-04-04T10:05:55,42.805,6.029,CST-1368DR,5597,7824,15025,0.154,551
2021-04-04T10:08:57,42.805,6.029,CST-1368DR,5597,7825,15026,0.154,551
2021-04-04T10:11:58,42.805,6.029,CST-1368DR,5597,7825,15027,0.154,551
2021-04-04T10:15:00,42.805,6.029,CST-1368DR,5597,7825,15027,0.154,551
2021-04-04T10:18:01,42.805,6.029,CST-1368DR,5597,7825,15027,0.154,551
2021-04-04T10:21:03,42.805,6.029,CST-1368DR,5597,7826,15028,0.154,551
2021-04-04T10:24:04,42.805,6.029,CST-1368DR,5596,7824,15027,0.154,551
2021-04-04T10:27:06,42.805,6.029,CST-1368DR,5596,7826,15030,0.153,551
2021-04-04T10:30:08,42.805,6.029,CST-1368DR,5596,7825,15029,0.153,551
2021-04-04T10:33:09,42.805,6.029,CST-1368DR,5596,7825,15029,0.153,551
2021-04-04T10:36:11,42.805,6.029,CST-1368DR,5596,7825,15029,0.153,551
2021-04-04T10:39:12,42.805,6.029,CST-1368DR,5596,7820,15020,0.156,551
2021-04-04T10:42:14,42.805,6.029,CST-1368DR,5596,7825,15029,0.153,551
2021-04-04T10:45:15,42.805,6.029,CST-1368DR,5596,7823,15026,0.154,551
2021-04-04T10:48:17,42.805,6.029,CST-1368DR,5596,7825,15029,0.153,551
2021-04-04T10:51:19,42.805,6.029,CST-1368DR,5596,7822,15024,0.155,551
2021-04-04T10:54:20,42.805,6.029,CST-1368DR,5596,7825,15029,0.153,551
2021-04-04T10:57:22,42.805,6.029,CST-1368DR,5596,7823,15026,0.154,551
2021-04-04T11:00:23,42.805,6.029,CST-1368DR,5596,7822,15023,0.155,551
2021-04-04T11:03:25,42.805,6.029,CST-1368DR,5596,7824,15028,0.154,551
2021-04-04T11:06:27,42.805,6.029,CST-1368DR,5596,7822,15023,0.155,551
2021-04-04T11:09:28,42.805,6.029,CST-1368DR,5596,7823,15026,0.154,551
2021-04-04T11:12:30,42.805,6.029,CST-1368DR,5596,7822,15024,0.155,551
2021-04-04T11:15:31,42.805,6.029,CST-1368DR,5596,7824,15027,0.154,551
2021-04-04T11:18:33,42.805,6.029,CST-1368DR,5595,7822,15027,0.154,551
2021-04-04T11:21:34,42.805,6.029,CST-1368DR,5595,7822,15025,0.154,551
2021-04-04T11:24:36,42.805,6.029,CST-1368DR,5595,7822,15026,0.154,551
2021-04-04T11:27:38,42.805,6.029,CST-1368DR,5595,7823,15028,0.154,551
2021-04-04T11:30:39,42.805,6.029,CST-1368DR,5595,7823,15028,0.154,551
2021-04-04T11:33:41,42.805,6.029,CST-1368DR,5595,7822,15026,0.154,551
2021-04-04T11:36:42,42.805,6.029,CST-1368DR,5595,7822,15027,0.154,551
2021-04-04T11:39:44,42.805,6.029,CST-1368DR,5595,7822,15025,0.154,551
2021-04-04T11:42:45,42.805,6.029,CST-1368DR,5595,7822,15026,0.154,551
2021-04-04T11:45:47,42.805,6.029,CST-1368DR,5595,7822,15027,0.154,551
2021-04-04T11:48:49,42.805,6.029,CST-1368DR,5595,7823,15028,0.154,551
2021-04-04T11:51:50,42.805,6.029,CST-1368DR,5595,7822,15026,0.154,551
2021-04-04T11:54:52,42.805,6.029,CST-1368DR,5595,7822,15026,0.154,551
2021-04-04T11:57:53,42.805,6.029,CST-1368DR,5595,7822,15027,0.154,550
2021-04-04T12:00:55,42.805,6.029,CST-1368DR,5595,7823,15028,0.154,551
2021-04-04T12:03:57,42.805,6.029,CST-1368DR,5595,7822,15026,0.154,551
2021-04-04T12:06:58,42.805,6.029,CST-1368DR,5595,7821,15024,0.155,551
2021-04-04T12:10:00,42.805,6.029,CST-1368DR,5595,7823,15028,0.154,551
2021-04-04T12:13:01,42.805,6.029,CST-1368DR,5595,7821,15025,0.154,551
2021-04-04T12:16:03,42.805,6.029,CST-1368DR,5595,7820,15022,0.155,551
2021-04-04T12:19:04,42.805,6.029,CST-1368DR,5595,7822,15026,0.154,551
2021-04-04T12:22:06,42.805,6.029,CST-1368DR,5595,7820,15023,0.155,551
2021-04-04T12:25:08,42.805,6.029,CST-1368DR,5595,7822,15025,0.154,551
2021-04-04T12:28:09,42.805,6.029,CST-1368DR,5595,7822,15025,0.154,551
2021-04-04T12:31:11,42.805,6.029,CST-1368DR,5594,7821,15026,0.154,551
2021-04-04T12:34:12,42.805,6.029,CST-1368DR,5594,7822,15028,0.154,551
2021-04-04T12:37:14,42.805,6.029,CST-1368DR,5594,7819,15023,0.155,551
2021-04-04T12:40:15,42.805,6.029,CST-1368DR,5594,7820,15025,0.154,551
2021-04-04T12:43:17,42.805,6.029,CST-1368DR,5594,7820,15024,0.155,551
2021-04-04T12:46:19,42.805,6.029,CST-1368DR,5594,7821,15027,0.154,551
2021-04-04T12:49:20,42.805,6.029,CST-1368DR,5594,7819,15022,0.155,551
2021-04-04T12:52:22,42.805,6.029,CST-1368DR,5594,7820,15025,0.154,551
2021-04-04T12:55:23,42.805,6.029,CST-1368DR,5594,7817,15020,0.156,551
2021-04-04T12:58:25,42.805,6.029,CST-1368DR,5594,7820,15025,0.154,551
2021-04-04T13:01:27,42.805,6.029,CST-1368DR,5594,7821,15027,0.154,551
2021-04-04T13:04:28,42.805,6.029,CST-1368DR,5594,7822,15028,0.154,551
2021-04-04T13:07:30,42.805,6.029,CST-1368DR,5594,7820,15025,0.154,551
2021-04-04T13:10:31,42.805,6.029,CST-1368DR,5594,7818,15020,0.156,551
2021-04-04T13:13:33,42.805,6.029,CST-1368DR,5594,7818,15020,0.156,551
2021-04-04T13:16:34,42.805,6.029,CST-1368DR,5594,7820,15025,0.154,551
2021-04-04T13:19:36,42.805,6.029,CST-1368DR,5594,7820,15025,0.154,551
2021-04-04T13:22:38,42.805,6.029,CST-1368DR,5594,7820,15024,0.155,551
2021-04-04T13:25:39,42.805,6.029,CST-1368DR,5594,7821,15027,0.154,551
2021-04-04T13:28:41,42.805,6.029,CST-1368DR,5594,7821,15026,0.154,551
2021-04-04T13:31:42,42.805,6.029,CST-1368DR,5594,7821,15026,0.154,551
2021-04-04T13:34:44,42.805,6.029,CST-1368DR,5594,7819,15023,0.155,551
2021-04-04T13:37:46,42.805,6.029,CST-1368DR,5594,7821,15026,0.154,551
2021-04-04T13:40:47,42.805,6.029,CST-1368DR,5594,7821,15026,0.154,551
2021-04-04T13:43:49,42.805,6.029,CST-1368DR,5594,7820,15025,0.154,551
2021-04-04T13:46:50,42.805,6.029,CST-1368DR,5593,7821,15028,0.154,551
2021-04-04T13:49:52,42.805,6.029,CST-1368DR,5593,7819,15025,0.154,551
2021-04-04T13:52:53,42.805,6.029,CST-1368DR,5593,7821,15028,0.154,551
2021-04-04T13:55:55,42.805,6.029,CST-1368DR,5593,7820,15027,0.154,551
2021-04-04T13:58:57,42.805,6.029,CST-1368DR,5593,7819,15026,0.154,551
2021-04-04T14:01:58,42.805,6.029,CST-1368DR,5593,7820,15027,0.154,551
2021-04-04T14:05:00,42.805,6.029,CST-1368DR,5593,7820,15027,0.154,551
2021-04-04T14:08:01,42.805,6.029,CST-1368DR,5593,7819,15026,0.154,551
2021-04-04T14:11:03,42.805,6.029,CST-1368DR,5593,7820,15027,0.154,551
2021-04-04T14:14:04,42.805,6.029,CST-1368DR,5593,7820,15027,0.154,551
2021-04-04T14:17:06,42.805,6.029,CST-1368DR,5593,7820,15028,0.154,551
2021-04-04T14:20:08,42.805,6.029,CST-1368DR,5593,7818,15023,0.155,551
2021-04-04T14:23:09,42.805,6.029,CST-1368DR,5593,7819,15025,0.154,551
2021-04-04T14:26:11,42.805,6.029,CST-1368DR,5593,7818,15024,0.155,551
2021-04-04T14:29:12,42.805,6.029,CST-1368DR,5593,7819,15025,0.154,551
2021-04-04T14:32:14,42.805,6.029,CST-1368DR,5593,7819,15026,0.154,551
2021-04-04T14:35:16,42.805,6.029,CST-1368DR,5593,7820,15027,0.154,551
2021-04-04T14:38:17,42.805,6.029,CST-1368DR,5593,7819,15025,0.154,551
2021-04-04T14:41:19,42.805,6.029,CST-1368DR,5593,7817,15022,0.155,551
2021-04-04T14:44:20,42.805,6.029,CST-1368DR,5593,7820,15027,0.154,551
2021-04-04T14:47:22,42.805,6.029,CST-1368DR,5593,7819,15026,0.154,551
2021-04-04T14:50:23,42.805,6.029,CST-1368DR,5593,7820,15027,0.154,551
2021-04-04T14:53:25,42.805,6.029,CST-1368DR,5593,7819,15025,0.154,551
2021-04-04T14:56:27,42.805,6.029,CST-1368DR,5593,7818,15024,0.155,551
2021-04-04T14:59:28,42.805,6.029,CST-1368DR,5592,7820,15029,0.153,551
2021-04-04T15:02:30,42.805,6.029,CST-1368DR,5592,7820,15029,0.153,551
2021-04-04T15:05:31,42.805,6.029,CST-1368DR,5592,7819,15028,0.154,551
2021-04-04T15:08:33,42.805,6.029,CST-1368DR,5592,7818,15026,0.154,551
2021-04-04T15:11:35,42.805,6.029,CST-1368DR,5592,7817,15025,0.154,551
2021-04-04T15:14:36,42.805,6.029,CST-1368DR,5592,7818,15027,0.154,551
2021-04-04T15:17:38,42.805,6.029,CST-1368DR,5592,7818,15025,0.154,551
2021-04-04T15:20:39,42.805,6.029,CST-1368DR,5592,7818,15027,0.154,551
2021-04-04T15:23:41,42.805,6.029,CST-1368DR,5592,7819,15027,0.154,551
2021-04-04T15:26:42,42.805,6.029,CST-1368DR,5592,7818,15025,0.154,551
2021-04-04T15:29:44,42.805,6.029,CST-1368DR,5592,7819,15027,0.154,551
2021-04-04T15:32:46,42.805,6.029,CST-1368DR,5592,7818,15026,0.154,551
2021-04-04T15:35:47,42.805,6.029,CST-1368DR,5592,7819,15027,0.154,551
2021-04-04T15:38:49,42.805,6.029,CST-1368DR,5592,7817,15025,0.154,551
2021-04-04T15:41:50,42.805,6.029,CST-1368DR,5592,7818,15025,0.154,551
2021-04-04T15:44:52,42.805,6.029,CST-1368DR,5592,7817,15024,0.155,551
2021-04-04T15:47:53,42.805,6.029,CST-1368DR,5592,7813,15016,0.157,551
2021-04-04T15:50:55,42.805,6.029,CST-1368DR,5592,7817,15025,0.154,551
2021-04-04T15:53:57,42.805,6.029,CST-1368DR,5592,7818,15027,0.154,551
2021-04-04T15:56:58,42.805,6.029,CST-1368DR,5592,7816,15023,0.155,551
2021-04-04T16:00:00,42.805,6.029,CST-1368DR,5592,7815,15020,0.156,550
2021-04-04T16:03:01,42.805,6.029,CST-1368DR,5592,7818,15025,0.154,551
2021-04-04T16:06:03,42.805,6.029,CST-1368DR,5592,7814,15018,0.156,551
2021-04-04T16:09:05,42.805,6.029,CST-1368DR,5591,7815,15022,0.155,551
2021-04-04T16:12:06,42.805,6.029,CST-1368DR,5591,7817,15026,0.154,551
2021-04-04T16:15:08,42.805,6.029,CST-1368DR,5591,7819,15030,0.153,551
2021-04-04T16:18:09,42.805,6.029,CST-1368DR,5591,7805,15004,0.160,551
2021-04-04T16:21:11,42.805,6.029,CST-1368DR,5591,7816,15025,0.154,551
2021-04-04T16:24:12,42.805,6.029,CST-1368DR,5591,7818,15028,0.154,551
2021-04-04T16:27:14,42.805,6.029,CST-1368DR,5591,7817,15026,0.154,551
2021-04-04T16:30:16,42.805,6.029,CST-1368DR,5591,7816,15024,0.155,551
2021-04-04T16:33:17,42.805,6.029,CST-1368DR,5591,7817,15026,0.154,551
2021-04-04T16:36:19,42.805,6.029,CST-1368DR,5591,7817,15027,0.154,551
2021-04-04T16:39:20,42.805,6.029,CST-1368DR,5591,7815,15023,0.155,551
2021-04-04T16:42:22,42.805,6.029,CST-1368DR,5591,7801,14996,0.162,551
2021-04-04T16:45:23,42.805,6.029,CST-1368DR,5591,7818,15028,0.154,551
2021-04-04T16:48:25,42.805,6.029,CST-1368DR,5591,7817,15027,0.154,551
2021-04-04T16:51:27,42.805,6.029,CST-1368DR,5591,7817,15026,0.154,551